This demonstration page uses our WeatherBlox Daily Observations layout. Learn more.

36.19886, -115.1175

Hourly Observations for September 2, 2019

Temp ( °F °C ) Dew Point ( °F °C ) Humidity (%) Winds ( mph kmh ) Pressure ( in mb ) Visibility ( mi km ) Precip ( " mm )
12:53 am 00:53 Mostly Cloudy 90 32.2 60 15.6 37 37 S 32 52 29.88 1012 7 11.265408 0 0
1:10 am 01:10 Partly Cloudy 89 31.7 59 15 36 36 SSW 25 41 29.83 1010 10 16.09344 0 0
1:53 am 01:53 Clear 88 31.1 58 14.4 36 36 SSW 17 28 29.94 1014 10 16.09344 0 0
2:53 am 02:53 Clear 87 30.6 55 12.8 34 34 SE 12 19 29.91 1013 10 16.09344 0 0
3:53 am 03:53 Clear 87 30.6 53 11.7 31 31 S 16 26 29.91 1013 10 16.09344 0 0
4:53 am 04:53 Clear 85 29.4 55 12.8 36 36 E 13 20 29.91 1013 10 16.09344 0 0
5:53 am 05:53 Clear 83 28.3 58 14.4 43 43 ESE 7 11 29.94 1014 10 16.09344 0 0
6:53 am 06:53 Sunny 82 27.8 58 14.4 44 44 N 6 9 29.97 1015 10 16.09344 0 0
7:53 am 07:53 Mostly Sunny 83 28.3 58 14.4 43 43 Calm 29.97 1015 10 16.09344 0 0
8:53 am 08:53 Mostly Sunny 85 29.4 58 14.4 40 40 ESE 9 15 29.97 1015 10 16.09344 0.001 0.001
9:53 am 09:53 Mostly Sunny 83 28.3 61 16.1 48 48 S 6 9 30 1016 10 16.09344 0.001 0.001
10:53 am 10:53 Mostly Sunny 86 30 58 14.4 39 39 SSW 3 6 30 1016 10 16.09344 0 0
11:53 am 11:53 Sunny 91 32.8 56 13.3 31 31 Calm 29.97 1015 10 16.09344 0 0
12:53 pm 12:53 Sunny 92 33.3 55 12.8 29 29 Calm 29.97 1015 10 16.09344 0 0
1:53 pm 13:53 Sunny 95 35 53 11.7 24 24 SSW 7 11 29.94 1014 10 16.09344 0 0
2:53 pm 14:53 Sunny 97 36.1 52 11.1 22 22 SSE 8 13 29.88 1012 10 16.09344 0 0
3:53 pm 15:53 Sunny 99 37.2 51 10.6 20 20 SE 7 11 29.85 1011 10 16.09344 0 0
4:53 pm 16:53 Sunny 100 37.8 51 10.6 19 19 SSE 12 19 29.83 1010 10 16.09344 0 0
5:53 pm 17:53 Sunny 100 37.8 51 10.6 19 19 SE 8 13 29.83 1010 10 16.09344 0 0
6:53 pm 18:53 Sunny 99 37.2 52 11.1 21 21 SE 10 17 29.83 1010 10 16.09344 0 0
7:53 pm 19:53 Clear 97 36.1 51 10.6 21 21 SSE 8 13 29.85 1011 10 16.09344 0 0
8:53 pm 20:53 Clear 95 35 53 11.7 24 24 SE 10 17 29.88 1012 10 16.09344 0 0
9:53 pm 21:53 Clear 94 34.4 52 11.1 24 24 WSW 8 13 29.88 1012 10 16.09344 0 0
10:53 pm 22:53 Clear 91 32.8 53 11.7 27 27 NW 8 13 29.88 1012 10 16.09344 0 0
11:53 pm 23:53 Clear 89 31.7 50 10 26 26 W 5 7 29.88 1012 10 16.09344 0 0

Powered by AerisWeather